User: anonymous
Location: Columbia
(38.9520°N, 92.3340°W)
Time: 02:01:40
(UTC-05:00)
Language:

Cosmos 1603 - Orbit

View from above orbital plane
View from above orbital plane
View from above satellite
View from above satellite

Ground track
Ground track

The orbit data is extracted from the following two-line orbital elements,

1 15333U 84106A   14210.10230517 -.00000227  00000-0 -94657-4 0   428
2 15333 071.0268 139.4222 0019585 005.1106 084.0162 14.13938876539261
Epoch (UTC): 29 July 2014 02:27:19
Eccentricity: 0.0019585
inclination: 71.0268°
perigee height: 832 km
apogee height: 860 km
right ascension of ascending node: 139.4222°
argument of perigee: 5.1106°
revolutions per day: 14.13938876
mean anomaly at epoch: 84.0162°
orbit number at epoch: 53926

The dashed part of the orbit path shows where the satellite is in the earth's shadow,  

DLR